Theta_e
292 292 292 292 291 289 289 289 288 288 288 288 286 284 285 286 281 278 285 292 291 292 301 307 308 309 310 309 309 310 310 311 311 313 315 317 318 319 321 322 324 325 325 326 326 327 326 327 327 327 328 328 328 327 325 324 323 321 320 318 316 315 314 313 313 313 314 314 314 314 315 315 315 315 315 314 314 312 311 309 309 308 309 309 307 305 304
290 291 293 294 291 290 290 290 290 290 289 288 288 288 289 288 285 285 288 291 291 293 300 304 306 307 309 309 310 311 312 311 311 313 314 315 316 315 315 316 316 316 317 317 315 319 321 323 322 323 324 324 325 324 323 322 321 320 319 316 315 314 313 313 313 313 314 314 313 314 313 314 315 315 314 313 313 311 310 308 308 309 310 308 306 303 301
287 291 294 293 292 290 288 289 291 291 290 290 289 290 291 291 290 292 293 293 295 299 302 304 306 308 309 310 311 312 311 311 312 313 314 314 313 313 315 315 315 316 317 316 315 317 318 319 320 321 322 321 323 323 322 320 319 318 317 316 315 314 313 313 313 313 313 313 313 313 314 314 314 314 313 312 311 310 309 308 308 308 307 304 302 301 299
284 291 290 290 290 290 288 290 292 292 287 287 287 288 290 289 287 292 294 293 294 300 304 306 306 307 309 309 309 311 312 312 312 313 312 312 312 313 314 314 314 313 313 315 315 315 317 319 320 321 321 322 322 321 320 318 317 317 316 315 314 314 314 313 313 313 313 313 313 313 314 314 314 314 312 311 310 309 308 307 307 306 303 302 301 299 298
282 290 289 288 287 287 285 285 289 292 291 291 290 291 291 291 292 291 287 291 299 303 304 306 303 306 305 307 308 308 307 309 311 311 311 312 312 312 311 311 312 313 314 316 316 317 320 321 322 322 322 322 320 318 317 316 316 315 315 314 314 313 313 313 312 312 313 313 313 313 313 314 314 313 311 310 308 307 306 307 306 304 303 302 300 298 297
282 286 287 286 282 276 278 289 294 295 292 291 290 291 293 295 293 287 291 296 299 302 302 306 304 306 308 310 310 313 312 310 308 309 311 312 312 311 310 310 313 315 316 317 318 319 321 322 323 323 322 320 318 317 316 316 315 314 314 313 313 313 312 312 312 312 313 312 312 313 314 314 313 311 310 309 308 307 307 306 304 303 302 301 300 298 297
283 282 281 280 275 276 287 291 297 298 297 294 294 295 298 299 299 298 298 301 303 304 305 307 308 308 308 308 310 311 311 312 311 310 310 311 311 311 311 312 314 316 317 318 318 319 321 321 321 320 319 317 316 315 315 314 314 313 313 312 312 312 311 311 312 312 313 312 312 313 313 312 311 310 309 308 308 307 306 305 304 303 302 300 300 299 297
282 281 276 273 275 284 290 293 297 300 297 294 290 292 296 299 299 298 298 303 303 303 303 303 305 306 306 309 308 310 312 313 312 310 311 310 311 311 312 313 314 316 318 318 318 318 318 319 318 317 316 316 315 314 314 313 312 312 312 311 310 310 310 310 311 312 312 312 312 312 312 311 310 310 308 307 306 306 304 303 302 302 301 300 298 297 296
281 279 277 278 284 287 290 291 295 295 292 295 290 285 291 297 299 300 297 300 301 303 303 304 304 306 309 306 305 309 310 311 313 313 312 311 311 311 312 312 313 316 318 318 317 316 315 316 315 315 315 315 314 313 312 312 311 310 310 309 309 309 309 310 312 313 313 312 312 312 311 310 309 308 307 306 305 305 302 301 300 299 298 297 297 296 295
282 280 279 279 278 275 283 290 296 298 300 299 298 287 286 298 301 302 300 300 301 303 302 303 304 307 305 300 302 307 309 311 312 311 311 312 312 313 312 313 313 313 314 314 315 315 313 313 314 314 314 314 312 311 310 310 309 309 308 308 309 309 310 312 313 313 313 313 312 311 310 310 308 307 306 305 304 304 301 300 299 298 298 297 296 296 295
281 281 279 278 276 278 283 289 296 300 299 299 297 285 282 296 299 302 302 302 301 300 302 302 304 303 297 296 301 310 311 311 311 312 312 313 313 313 313 312 311 311 311 312 313 313 313 311 311 312 311 311 310 308 309 309 309 308 308 309 309 310 311 312 313 313 312 312 312 311 310 309 308 306 305 304 304 303 301 300 298 297 297 295 294 295 295
279 279 280 280 280 281 291 294 297 300 300 295 288 282 282 297 300 302 301 301 301 300 300 299 299 298 293 298 307 312 312 311 311 312 311 311 312 312 312 311 311 310 311 311 312 312 311 309 310 311 311 310 308 308 308 308 308 308 309 310 311 311 312 312 312 311 311 310 310 310 309 308 308 306 305 304 303 301 298 297 296 295 294 294 293 293 293
279 280 280 281 283 290 294 297 299 301 299 292 283 279 287 294 299 302 301 299 300 301 302 299 296 299 295 303 311 311 311 311 311 311 312 312 312 311 310 309 307 311 311 311 311 310 309 309 310 310 310 308 307 307 308 307 307 308 310 310 311 311 310 310 310 310 310 310 310 310 309 308 307 306 305 302 299 297 296 296 295 294 293 293 293 292 292
281 277 279 281 283 290 297 299 300 299 294 285 280 287 295 298 300 301 302 300 300 300 299 298 299 300 304 310 310 310 311 311 310 310 310 310 310 310 309 308 310 310 310 309 308 308 308 309 309 309 309 307 306 306 306 306 307 309 310 310 310 309 309 309 310 310 310 310 310 310 309 307 305 303 302 300 298 297 296 294 293 292 292 292 291 291 291
281 278 279 281 279 287 299 298 293 296 285 285 290 295 300 302 300 301 303 303 302 299 301 302 304 307 308 309 309 310 310 310 309 309 309 308 308 308 308 309 309 309 308 308 307 308 309 309 309 308 308 306 306 306 306 306 307 308 309 309 309 309 309 309 309 310 310 309 309 309 307 305 303 301 300 299 298 296 294 293 293 291 291 291 290 290 290
280 279 280 282 287 292 299 298 291 297 298 297 296 299 297 300 301 301 301 303 302 302 304 305 306 308 308 309 309 309 309 309 309 309 309 308 308 308 309 309 309 309 308 308 307 308 308 309 309 308 308 306 306 306 305 306 306 307 308 308 308 307 308 309 309 309 309 309 308 306 305 304 302 300 299 298 296 296 295 293 291 290 289 290 290 289 289
282 282 282 289 293 296 298 300 299 300 303 303 302 299 301 300 302 302 301 302 303 303 304 305 307 307 308 308 309 308 308 308 308 307 307 308 308 309 309 309 308 309 308 308 308 308 308 308 308 308 308 306 305 305 305 306 306 307 307 306 306 307 308 308 308 309 308 307 306 305 304 303 301 300 298 297 296 295 294 292 291 290 289 290 290 289 289
294 295 295 297 296 296 298 300 302 302 303 303 302 301 300 301 302 302 302 302 303 303 306 307 304 306 306 307 307 307 307 306 306 307 308 309 309 310 309 309 309 309 309 309 308 307 307 308 307 307 307 307 305 304 305 306 307 307 306 306 306 307 308 308 308 308 306 306 305 305 304 303 301 300 298 298 296 295 293 292 291 290 289 290 289 290 290
287 285 292 296 297 298 299 300 301 302 303 302 303 302 302 302 302 302 301 301 302 303 304 307 307 306 305 306 306 306 306 306 306 307 308 308 309 309 308 309 308 309 309 308 307 306 306 307 307 307 306 306 306 305 305 306 307 307 307 306 306 306 307 307 307 306 304 302 301 301 301 301 301 301 300 297 296 294 293 291 291 290 290 290 291 290 289
282 285 292 295 297 298 299 299 299 299 301 301 302 302 302 302 303 302 303 302 303 303 303 304 306 306 306 306 305 306 306 306 306 307 307 308 309 309 309 309 309 308 308 307 306 306 305 306 306 306 305 305 306 306 306 307 308 307 306 306 306 306 305 302 300 299 298 293 295 295 294 294 294 293 294 296 295 293 292 292 291 291 290 290 290 290 289
291 294 296 297 296 297 298 299 299 300 299 300 300 301 302 303 303 304 304 301 302 301 302 302 305 307 307 307 307 307 306 306 306 307 308 309 309 309 308 308 307 307 307 306 306 305 304 305 305 305 305 306 307 307 307 308 308 307 305 304 306 303 300 298 296 296 296 294 293 290 288 287 286 286 287 291 292 290 289 290 293 292 291 290 291 291 289
285 286 291 295 287 287 293 297 298 299 300 300 300 300 301 301 302 303 303 304 302 302 303 302 303 306 306 309 307 306 305 306 307 308 308 309 309 308 308 308 307 307 306 305 305 304 304 304 304 305 305 306 306 307 307 307 307 306 305 305 304 300 298 296 295 294 293 292 291 290 288 287 287 287 287 288 288 289 291 291 291 292 292 292 293 291 288
285 292 297 295 294 294 295 296 298 299 300 300 299 299 300 301 301 302 302 302 302 302 303 303 303 304 306 307 305 305 306 306 308 309 309 309 308 307 307 306 306 305 305 305 304 303 303 303 304 305 305 306 306 306 307 307 307 306 306 304 301 298 296 295 294 294 292 291 289 289 288 288 288 287 286 287 288 289 289 290 291 291 291 292 291 290 291
295 297 297 296 293 294 295 297 298 299 299 300 299 299 300 302 302 302 302 301 300 301 302 304 304 304 306 308 306 305 305 306 307 309 309 310 308 307 307 306 305 304 303 303 302 302 302 303 304 305 305 305 306 306 307 307 307 307 306 304 300 297 296 294 292 292 291 289 288 288 287 288 288 287 287 286 286 288 288 289 289 289 290 290 289 289 289
294 300 301 301 300 298 297 297 297 297 298 299 299 299 299 300 301 301 302 302 302 301 301 304 305 305 306 306 307 307 307 307 307 308 307 307 305 306 306 305 304 303 303 304 303 302 302 303 304 304 304 304 305 306 307 307 307 306 305 303 299 297 295 294 293 291 290 289 288 288 287 287 287 287 287 286 285 284 286 288 289 288 289 289 289 289 289
298 298 298 298 298 298 297 297 297 297 297 297 297 297 299 301 301 301 301 300 301 301 300 303 304 305 307 307 306 306 307 307 304 305 307 306 305 305 305 303 303 304 304 303 303 302 302 302 303 303 304 304 305 307 307 307 307 305 304 301 299 297 295 294 292 291 290 289 288 288 288 287 287 286 286 286 285 284 283 283 285 286 288 288 289 289 289
300 299 298 296 294 294 296 295 293 295 297 298 297 297 299 298 300 299 299 300 300 301 300 299 302 301 302 304 304 305 306 304 305 307 307 306 305 305 305 304 303 302 302 302 302 301 300 301 302 302 303 304 305 306 307 306 305 304 302 300 299 293 290 292 293 291 290 289 288 288 287 286 285 285 285 284 285 284 284 283 282 282 282 283 286 288 286
296 298 298 293 292 292 293 294 295 296 297 297 297 298 299 300 301 300 299 300 301 302 302 301 299 300 301 301 303 302 302 305 306 306 306 305 305 305 304 303 303 302 302 301 301 300 300 302 302 302 303 304 305 305 306 306 305 303 301 300 298 296 295 294 293 292 291 290 289 288 287 286 285 285 284 284 284 283 283 283 283 282 281 282 282 287 288
294 295 296 295 295 294 294 294 296 296 296 297 298 298 300 301 300 299 298 298 300 302 301 301 300 299 299 299 302 302 303 303 303 304 304 304 304 304 304 303 303 302 301 300 301 302 302 302 302 302 302 303 305 305 305 305 303 301 300 299 298 297 296 295 294 293 292 291 289 288 286 285 285 285 284 284 283 283 283 283 282 281 282 281 283 284 285
294 294 294 293 293 294 295 293 292 293 295 296 297 298 299 300 299 299 300 300 300 300 300 302 302 301 300 299 299 301 301 300 301 303 303 303 304 304 304 303 302 302 302 301 301 302 302 302 302 302 302 303 304 305 304 302 301 301 300 300 298 297 296 296 294 293 293 291 288 286 286 286 285 285 285 284 284 284 283 282 282 282 282 281 284 280 281
293 294 295 295 295 294 294 292 291 291 293 294 295 296 297 299 298 298 298 298 298 299 300 300 300 300 300 299 299 299 299 300 300 302 303 303 303 303 303 303 301 299 300 301 302 302 302 302 302 302 302 304 304 303 302 301 300 300 300 299 298 292 290 290 291 294 292 289 287 288 286 286 286 285 284 284 284 283 283 282 281 282 281 281 282 280 280
294 293 294 294 293 293 292 291 291 291 291 292 294 295 296 297 297 297 298 297 297 297 299 299 299 299 298 298 299 299 299 300 301 301 302 302 302 303 303 303 302 298 302 302 302 301 302 302 302 302 303 304 304 303 302 300 300 299 299 295 296 294 291 290 292 291 290 288 288 288 286 286 286 285 285 285 284 283 283 282 282 281 281 281 282 282 281
291 290 290 291 292 292 291 290 291 291 291 292 293 296 298 298 298 297 298 298 298 298 298 299 299 299 299 299 299 299 299 299 300 301 300 300 300 301 301 301 302 302 302 302 302 303 302 302 302 303 303 304 304 303 302 302 301 299 298 298 297 295 290 290 290 291 290 289 288 288 287 287 286 286 286 285 285 284 283 283 282 282 282 281 283 281 281
291 290 290 291 292 292 292 291 291 291 292 293 295 297 298 298 297 296 296 297 298 298 298 298 299 299 299 299 299 299 298 298 298 298 299 299 299 300 300 301 302 303 303 303 303 303 303 303 303 303 304 304 304 303 302 301 300 299 299 298 297 295 294 292 291 291 290 289 288 288 287 287 287 287 285 286 286 285 284 282 282 282 282 282 282 281 283
293 292 293 294 294 294 294 293 292 291 291 292 292 294 296 297 297 296 296 298 298 297 297 298 299 299 299 298 298 298 297 297 297 298 299 299 300 300 301 302 302 302 302 302 303 303 304 304 304 305 305 304 303 303 302 300 299 298 298 298 296 295 295 292 292 291 290 290 289 289 288 288 287 286 287 287 286 285 284 283 283 283 283 284 284 282 282
295 294 294 294 294 294 293 292 292 291 290 291 293 294 296 298 299 299 298 297 298 298 298 298 298 298 298 298 297 297 297 297 297 298 299 299 300 301 302 301 301 300 300 301 302 303 304 304 295 296 304 303 302 301 300 299 298 297 297 297 295 295 294 293 292 292 292 291 290 289 289 288 288 288 288 287 287 286 285 284 283 283 284 283 283 283 282
297 295 294 294 294 294 293 293 293 293 293 293 293 295 296 298 298 298 298 298 298 297 298 298 298 297 296 297 297 297 297 297 298 298 298 299 300 301 301 300 300 299 299 299 300 303 303 300 292 293 299 300 300 299 296 291 297 296 296 296 296 295 294 293 293 293 292 291 291 290 288 288 289 289 287 288 287 285 285 285 284 285 284 284 284 284 283
295 295 294 294 295 296 296 295 295 296 296 296 297 297 297 297 297 298 298 298 298 298 298 298 298 297 297 297 297 297 297 297 297 298 298 299 300 299 299 298 298 298 297 295 298 300 298 294 292 296 300 299 298 297 294 290 291 297 296 295 295 294 294 293 292 292 292 291 289 289 289 289 289 288 287 288 286 286 286 286 286 286 285 285 285 284 284
296 296 296 295 295 296 297 298 299 297 298 297 297 297 298 298 298 299 298 297 297 298 298 298 298 297 297 296 296 296 296 297 297 297 298 297 298 297 295 297 297 297 297 298 299 298 296 296 297 299 298 298 298 297 292 289 291 297 296 295 295 294 293 293 293 292 291 290 289 289 290 289 289 288 287 287 287 286 286 287 287 286 286 286 285 285 286
294 296 296 297 296 295 296 296 296 296 297 298 297 296 297 298 299 299 296 295 296 297 298 298 297 296 296 296 296 295 296 297 297 297 297 297 296 296 296 297 297 297 296 292 297 296 293 291 296 298 298 298 298 297 293 291 291 294 294 293 294 294 294 293 292 291 290 290 289 288 289 288 288 288 287 287 287 287 286 286 287 286 286 286 286 286 285
297 296 296 296 296 296 296 295 295 297 297 298 297 297 297 298 299 298 296 296 297 298 298 298 297 296 296 296 296 296 297 297 297 297 297 296 295 294 293 292 295 297 298 297 295 293 293 294 297 298 298 298 298 293 294 290 293 293 293 293 293 294 293 293 292 291 290 290 290 289 289 288 288 288 287 287 286 286 286 286 286 285 286 286 285 284 284
297 297 296 296 295 296 296 296 296 297 297 297 296 297 297 298 298 298 299 299 298 298 297 297 294 297 297 297 296 296 297 297 297 297 296 295 294 293 292 293 296 295 290 291 291 293 295 296 295 293 296 294 292 290 290 292 293 292 293 292 293 293 293 292 292 292 290 290 290 291 289 289 289 288 286 286 285 286 286 286 285 285 285 284 284 285 285
295 295 295 295 295 294 294 295 296 298 298 298 298 298 298 298 299 299 300 299 298 297 296 295 294 294 296 297 296 296 296 296 297 297 297 297 297 297 296 294 296 294 290 293 296 296 295 295 295 294 291 291 290 288 290 293 293 293 292 292 292 292 293 293 293 292 292 292 290 290 290 289 288 287 286 286 286 286 286 286 286 286 286 285 286 285 285
296 295 294 294 294 295 295 296 297 297 296 295 297 298 299 298 299 299 299 298 297 296 296 296 296 296 296 296 296 295 295 296 296 296 296 295 296 296 296 295 294 292 290 293 295 294 294 294 294 291 288 288 288 290 294 293 293 292 293 292 292 293 293 293 293 292 292 291 290 289 289 288 287 287 288 286 286 286 287 286 286 287 287 286 286 286 285
295 295 294 295 295 295 295 296 297 297 297 298 298 298 298 298 298 299 299 298 297 296 295 296 296 295 296 296 296 296 296 297 297 297 294 293 292 292 295 291 294 293 292 291 294 294 294 295 292 288 288 288 289 290 293 293 293 292 292 293 293 292 292 292 292 293 292 291 291 289 288 289 289 288 287 287 286 287 288 287 288 287 286 286 286 286 286
295 296 295 292 295 296 297 298 297 299 299 298 298 297 297 298 298 298 299 298 297 297 296 296 296 296 297 297 297 297 297 297 298 298 297 295 294 294 294 293 293 290 289 290 292 293 292 289 289 288 288 288 290 292 292 291 291 291 293 292 292 291 292 291 292 291 291 290 289 289 289 289 289 288 288 288 288 288 287 287 287 287 286 287 287 287 288
295 295 295 295 296 297 296 295 297 298 299 298 296 294 294 295 297 298 298 299 299 298 298 298 297 297 298 298 297 296 296 296 297 297 297 296 294 293 291 291 291 290 289 291 291 291 290 290 288 288 287 288 290 293 292 292 291 292 292 293 292 291 290 291 291 291 290 289 289 288 288 289 290 289 288 287 287 288 287 287 287 287 286 286 286 286 286
296 295 294 294 295 296 296 296 296 296 297 296 295 294 292 294 296 297 298 299 299 299 298 298 298 298 298 298 298 299 298 296 293 294 296 296 296 296 295 292 292 292 290 289 290 288 288 288 287 287 287 288 292 293 293 292 292 292 292 293 292 292 291 290 290 290 290 288 287 288 288 288 288 289 288 288 287 286 286 287 287 287 287 287 286 286 287
295 294 294 294 294 294 295 294 294 294 295 296 295 294 294 295 295 296 297 298 299 299 299 299 299 298 298 297 298 298 297 297 296 294 297 297 297 297 296 290 290 289 289 291 293 291 288 287 287 287 287 289 292 292 292 291 290 290 290 291 291 292 291 291 290 290 290 289 288 287 288 288 288 288 288 287 287 287 286 286 286 286 286 286 286 285 285
295 294 293 292 293 294 294 294 294 294 296 295 293 294 296 296 295 295 295 296 297 296 298 298 298 298 297 297 298 298 298 297 297 297 297 297 297 297 294 292 290 289 290 292 293 289 287 287 288 287 288 290 290 290 291 292 292 292 292 290 289 290 290 289 288 289 290 288 288 287 287 287 287 287 286 286 286 286 287 286 286 286 286 285 285 285 284
294 294 293 291 294 297 297 296 294 294 295 295 294 294 294 295 295 295 296 297 298 297 297 297 297 297 297 297 297 298 298 298 296 294 297 297 297 293 293 293 291 289 290 290 290 289 288 289 289 288 289 289 290 290 289 290 290 289 289 289 289 287 287 287 287 287 288 288 288 288 288 288 288 287 287 286 286 285 285 284 284 283 283 282 283 282 282
294 293 292 294 295 297 297 298 297 296 296 296 296 295 295 293 292 294 295 293 297 296 296 296 295 296 297 297 296 297 297 297 295 296 294 293 293 293 292 290 291 289 290 291 291 291 289 289 288 288 289 289 289 289 289 288 288 287 287 287 287 288 288 288 288 288 288 288 287 287 286 286 286 285 285 284 284 284 283 283 282 282 282 281 281 281 280
Wind_Speed
2 3 5 5 2 6 7 5 3 2 4 5 7 5 4 6 4 6 4 6 4 5 6 8 11 12 10 8 5 5 7 8 7 10 11 13 13 13 14 14 13 11 11 9 12 13 12 11 11 11 11 11 10 11 11 11 11 12 11 12 12 12 11 11 9 9 8 7 6 7 8 8 8 7 6 7 9 8 8 7 7 6 6 6 6 6 6
5 5 5 5 2 2 6 3 2 3 6 4 4 2 4 6 3 4 3 8 8 3 7 5 3 2 6 7 7 8 10 9 9 10 10 11 11 10 10 11 12 12 12 11 8 10 13 13 13 13 11 10 9 11 11 12 12 10 11 11 12 11 11 10 9 8 8 7 8 8 8 8 8 6 6 8 9 9 8 8 7 6 6 6 6 5 5
4 6 5 7 6 4 2 3 6 5 3 5 5 3 2 4 4 5 3 1 1 2 2 3 1 6 7 9 10 11 9 9 10 10 8 8 9 11 13 14 14 15 16 14 15 18 18 20 19 15 12 15 14 13 12 12 12 10 11 12 11 12 11 10 9 8 8 8 8 8 8 8 8 7 7 8 9 9 8 8 7 5 6 6 5 4 4
4 4 4 5 8 9 8 6 8 8 4 2 1 2 4 3 3 7 5 1 3 3 3 1 4 7 10 10 9 9 9 10 10 10 9 9 7 8 11 13 13 11 11 14 14 15 15 13 14 14 14 14 13 14 13 12 12 11 11 11 11 11 11 10 9 10 9 9 9 9 9 9 7 6 7 8 8 8 8 8 6 6 6 5 5 4 5
1 5 2 5 4 4 3 4 3 3 1 1 0 1 4 0 9 9 8 8 5 5 5 8 3 6 6 8 8 7 4 5 8 11 11 10 9 9 8 11 14 15 15 14 14 11 10 13 14 15 16 15 14 14 14 12 12 12 11 11 12 11 10 10 10 9 9 10 9 9 8 7 6 7 7 8 8 8 8 7 7 6 5 5 5 4 5
1 4 5 4 5 2 1 2 2 1 3 3 9 3 3 4 1 5 8 7 4 5 5 9 9 10 12 13 9 9 14 11 8 6 9 10 10 7 6 4 9 13 11 11 13 17 17 17 16 16 15 15 13 13 14 13 14 13 12 10 12 11 10 9 9 9 9 10 10 9 8 8 8 8 8 9 7 7 7 7 7 6 5 5 4 5 5
0 3 4 5 2 2 3 4 5 4 5 3 11 5 8 10 11 6 4 6 10 9 8 9 13 8 4 3 8 5 4 10 11 12 9 10 9 10 10 9 8 10 12 13 14 15 13 11 11 12 11 12 14 14 14 14 14 14 12 12 10 10 11 9 9 9 10 10 10 8 8 9 9 9 9 8 8 7 6 7 6 6 5 5 4 4 4
1 4 3 3 3 3 3 4 4 4 4 4 3 7 7 9 6 7 3 12 9 8 5 2 1 5 6 7 6 3 5 9 12 11 11 9 9 10 8 10 11 12 13 16 14 12 9 12 11 13 14 14 15 14 12 13 12 13 13 12 11 10 10 9 9 10 10 10 9 8 10 10 10 9 8 8 8 7 6 6 5 5 5 5 4 4 4
3 1 2 2 2 2 6 3 5 4 3 3 1 2 3 3 5 7 3 2 3 6 5 6 7 7 7 7 4 6 1 3 6 12 10 9 6 4 5 6 6 6 7 9 10 10 9 8 10 12 13 14 15 14 12 10 11 10 11 11 10 10 9 9 10 9 9 9 8 10 10 10 10 9 9 10 8 7 8 6 6 6 5 4 3 4 4
3 4 2 2 3 1 3 2 5 2 3 4 4 2 4 6 7 6 4 2 3 7 5 8 9 8 10 6 0 2 2 1 6 5 5 6 6 8 9 10 9 8 9 9 11 14 14 12 13 11 11 10 12 13 12 11 11 10 10 11 10 10 10 10 10 10 9 9 9 10 9 9 9 8 9 8 8 8 9 7 7 5 5 5 4 4 5
2 4 3 1 2 1 3 6 7 9 4 3 2 3 2 5 5 9 6 2 1 1 7 8 8 9 7 6 5 3 5 4 5 9 6 7 8 9 11 13 13 11 11 13 12 15 17 13 8 10 11 10 9 10 11 12 12 12 10 11 11 11 11 11 11 10 9 9 10 11 10 9 9 9 9 8 7 7 8 7 6 5 5 6 4 4 4
1 3 2 1 1 1 1 5 6 9 9 3 3 1 2 6 7 7 6 1 1 0 3 2 3 6 9 9 7 6 7 7 5 11 12 10 9 8 8 7 10 14 14 15 15 16 17 13 10 11 14 14 14 11 9 9 11 11 11 11 10 10 10 10 9 8 7 8 9 10 11 11 10 9 8 8 8 8 7 7 6 5 5 6 6 5 4
2 6 0 1 2 2 3 6 9 11 5 1 3 4 2 4 6 6 4 2 2 1 2 1 4 1 5 4 10 10 9 11 9 6 7 9 11 13 11 12 11 12 12 14 13 10 10 13 12 11 11 13 11 11 12 11 10 10 10 10 10 10 9 8 8 8 7 8 9 10 11 10 9 9 9 9 8 9 8 6 7 6 6 6 7 6 5
2 1 4 2 3 2 5 8 7 5 2 0 0 2 3 3 5 4 4 4 3 4 4 2 0 1 3 10 10 10 9 11 11 11 11 10 8 7 10 13 13 11 11 11 11 10 9 9 9 9 11 13 12 12 11 10 9 9 10 10 10 9 8 8 8 8 9 9 10 9 10 10 11 10 8 9 9 9 7 7 7 7 6 6 7 7 6
1 3 3 1 0 1 7 11 4 7 4 1 3 1 2 2 2 3 5 4 4 3 5 5 6 8 7 9 11 10 10 11 12 12 12 13 13 13 11 8 9 14 12 12 12 11 9 10 9 9 10 10 10 11 12 10 8 8 9 10 10 9 8 8 8 9 9 11 9 8 9 11 12 11 9 9 9 9 9 7 8 7 7 7 8 7 7
2 2 1 1 0 4 6 3 5 3 1 3 1 0 3 3 1 2 3 5 2 3 7 8 7 8 11 9 11 12 11 11 11 9 9 9 10 9 9 12 11 11 13 12 11 9 8 9 8 9 13 12 10 10 10 7 7 8 8 8 8 9 8 8 9 9 9 9 9 9 11 11 12 11 9 9 9 8 9 9 8 7 6 7 7 8 8
1 1 2 1 2 4 3 1 2 3 2 2 1 2 0 1 3 0 3 1 1 4 7 6 7 8 6 10 10 13 13 14 15 15 14 14 13 12 12 10 10 10 14 14 12 11 9 8 6 6 8 12 11 11 8 8 9 9 8 8 8 8 9 8 9 8 8 9 10 10 10 11 11 10 10 9 9 7 8 8 8 7 6 6 8 7 7
2 3 2 0 2 2 4 3 1 3 6 6 5 3 3 2 2 2 2 1 1 3 6 9 3 5 7 8 7 9 10 10 8 9 10 9 10 12 11 10 10 10 11 11 13 13 10 10 9 8 8 10 12 9 7 7 8 8 9 9 9 9 9 8 8 9 10 10 10 10 10 10 11 10 11 10 10 8 8 8 7 7 7 7 7 7 7
3 1 2 4 2 3 5 5 4 3 6 7 7 8 6 4 2 3 3 2 2 1 2 8 9 6 5 7 8 9 10 11 12 12 12 11 11 13 13 12 13 12 11 11 12 12 12 8 9 8 9 6 8 8 8 8 8 9 9 10 9 9 9 8 7 9 10 8 8 7 7 7 8 9 10 9 9 9 8 8 7 7 7 7 7 6 7
2 3 2 1 0 2 4 5 7 7 7 8 7 5 6 6 5 2 1 1 3 2 4 5 8 7 5 8 8 9 10 12 12 12 12 13 10 9 11 11 11 11 12 11 10 9 10 9 9 9 8 8 8 8 8 9 9 10 10 10 10 9 8 7 7 8 9 11 11 7 6 6 7 6 6 7 9 9 8 8 8 8 7 7 7 7 7
1 3 1 0 1 7 7 6 5 4 4 6 8 9 10 10 11 9 6 3 0 2 4 3 6 7 4 5 8 10 9 9 12 13 10 10 12 12 11 10 10 10 12 15 15 12 9 7 8 9 9 8 9 9 8 9 10 10 10 10 9 9 9 9 8 8 8 8 8 9 8 8 7 5 4 4 7 6 2 4 9 10 7 7 7 6 7
1 2 2 0 2 0 4 5 4 5 4 6 8 10 12 11 10 8 7 6 4 1 1 3 3 4 3 4 4 8 8 8 10 13 10 7 11 13 12 11 11 11 9 11 12 13 11 8 8 9 9 8 8 8 8 8 9 10 10 9 9 9 9 8 8 8 8 8 8 8 8 8 8 8 11 11 5 4 7 4 4 7 14 10 9 8 7
2 2 0 2 5 3 0 1 2 4 4 7 10 8 7 7 6 6 7 8 7 4 2 2 4 4 5 3 3 5 7 8 10 12 12 12 11 11 13 13 13 13 13 12 11 11 9 7 8 8 9 8 9 8 7 8 10 10 10 8 8 8 8 7 8 8 8 8 7 7 7 8 9 9 7 9 14 12 6 4 8 9 6 12 14 12 12
2 1 3 2 3 4 2 2 4 5 4 6 7 5 4 5 5 5 6 5 4 6 2 1 2 3 3 6 7 6 4 6 7 10 12 11 11 12 13 13 14 14 13 13 13 12 9 9 9 8 9 8 9 8 8 9 9 10 9 8 8 8 8 7 8 8 8 8 8 8 7 8 9 9 9 9 8 12 13 11 10 10 11 12 11 8 8
3 2 4 6 6 4 2 3 4 5 4 4 5 5 5 5 5 4 6 7 5 5 2 1 0 2 5 5 8 9 9 6 4 6 11 11 10 11 11 11 13 13 12 11 11 11 10 9 9 8 8 6 7 8 8 8 9 9 8 9 9 9 8 8 8 9 9 8 8 8 8 8 7 8 9 9 10 7 9 12 13 12 10 9 10 11 11
6 6 5 5 7 6 2 4 10 9 7 6 5 4 4 5 4 5 5 5 5 5 4 0 1 1 4 6 5 6 7 9 9 5 6 9 10 9 10 12 12 11 11 11 11 11 11 11 10 8 7 5 6 7 7 7 8 7 8 10 10 9 9 9 9 8 8 8 8 7 7 7 6 6 7 8 9 10 10 7 8 9 10 9 8 10 9
5 5 7 9 8 6 6 6 1 3 5 5 5 4 4 4 5 4 3 4 4 4 4 2 1 2 3 3 4 4 7 7 8 9 8 9 12 13 11 10 11 11 11 11 10 11 12 10 9 8 6 4 4 5 6 7 7 8 9 10 9 10 13 10 8 8 7 7 8 7 6 6 6 7 7 6 9 10 10 10 8 8 6 2 4 4 4
4 2 3 5 3 3 1 2 4 4 5 5 4 4 3 5 7 7 8 8 8 7 6 5 3 3 3 2 4 5 4 7 10 8 7 6 6 8 10 12 12 12 11 10 10 9 9 9 9 8 5 4 4 5 5 6 7 8 10 10 10 9 9 10 9 7 7 7 7 7 7 6 6 6 7 7 7 6 6 8 9 8 4 3 2 1 4
3 3 3 3 5 5 3 2 6 6 6 5 5 4 5 7 5 6 6 6 6 6 7 6 4 5 4 3 5 5 4 6 7 8 8 7 8 10 10 12 11 11 11 10 10 9 9 8 8 8 6 4 5 5 5 6 7 8 9 10 9 9 8 8 8 8 7 7 6 6 6 7 7 6 6 6 6 6 6 7 7 6 7 5 3 2 3
4 4 5 4 3 4 6 6 5 4 5 4 6 6 4 6 7 5 6 7 6 6 6 6 5 5 5 4 3 4 5 3 5 6 8 9 10 10 11 11 10 9 9 10 10 9 10 10 9 9 7 5 6 6 6 6 7 9 9 10 9 9 8 8 8 8 8 7 7 8 7 7 6 7 7 6 7 7 7 7 7 8 7 5 5 7 7
4 4 6 5 6 6 8 5 4 3 3 4 4 5 6 6 5 5 6 5 4 5 6 5 5 5 6 5 5 6 6 6 5 5 8 9 9 11 12 14 15 13 12 11 10 9 9 9 9 8 5 5 5 6 7 7 7 8 8 8 8 12 14 14 11 9 8 8 8 7 6 6 6 7 7 7 7 6 6 7 7 6 6 6 7 7 7
6 5 6 5 5 6 4 3 4 4 3 4 5 4 4 4 3 3 3 3 3 3 4 5 4 4 3 3 5 6 6 6 7 7 5 7 9 9 9 7 7 10 11 11 10 10 10 10 10 8 7 6 6 6 8 8 8 8 7 7 8 7 10 14 9 9 8 8 8 8 7 7 6 6 7 7 7 7 7 7 7 7 7 7 7 7 5
6 5 4 5 5 5 4 2 3 3 3 3 3 2 3 2 2 2 2 2 2 4 4 3 3 3 3 3 5 5 6 6 7 7 8 7 4 3 2 6 8 9 9 9 10 10 10 10 9 7 6 6 6 7 8 8 8 8 8 9 9 8 7 9 10 9 7 8 7 7 6 7 7 7 7 7 6 6 6 7 7 7 6 5 7 5 4
6 5 4 4 7 6 5 2 1 3 2 1 2 3 3 2 2 2 2 2 2 3 3 2 2 2 2 3 5 5 5 7 7 7 7 7 7 6 5 4 5 7 8 8 8 7 6 6 6 5 6 7 7 8 8 8 7 7 8 9 10 9 8 8 10 9 8 8 7 8 7 6 7 7 6 6 6 6 7 6 7 6 7 5 6 4 4
6 4 5 6 4 4 4 5 4 2 2 2 2 2 2 2 2 2 1 2 2 1 1 2 2 2 2 2 4 4 4 5 5 6 6 7 9 10 9 8 7 6 7 6 6 6 6 6 6 6 6 7 8 6 6 8 7 7 8 9 10 8 8 8 9 8 9 8 7 7 7 7 6 6 7 7 7 6 6 7 7 7 7 6 4 2 3
8 7 5 5 4 5 4 3 2 3 3 2 1 2 2 1 2 2 2 2 1 2 2 2 2 2 2 2 3 3 4 4 5 6 7 7 7 9 12 12 11 8 7 5 3 4 6 7 9 10 7 7 7 6 7 7 7 7 7 7 7 8 8 8 7 7 7 7 7 7 7 7 8 7 7 6 6 6 6 6 6 6 7 6 4 4 4
7 7 4 4 4 5 5 4 3 3 3 3 3 3 3 2 2 1 2 2 2 2 2 2 2 2 2 2 3 3 3 4 5 6 6 6 6 9 10 9 9 10 8 7 4 4 6 7 10 13 9 7 8 7 8 11 8 7 7 7 7 7 8 6 6 7 7 6 7 7 7 6 6 7 7 7 6 6 6 6 6 6 6 6 5 5 5
5 5 5 4 4 4 4 3 2 3 4 3 3 2 2 1 1 2 2 2 2 2 2 2 2 2 3 4 4 4 4 3 4 5 6 6 7 9 8 9 8 8 7 4 2 6 6 9 12 9 7 7 8 8 8 10 10 8 7 6 7 7 7 7 6 6 6 6 6 7 7 7 7 7 7 6 6 6 6 6 6 6 6 5 6 6 7
4 3 3 3 4 4 3 3 3 2 3 3 2 3 2 3 2 2 2 2 2 3 3 3 3 4 4 5 5 4 4 4 3 4 5 5 5 8 6 5 4 5 5 4 6 7 7 8 7 8 8 8 8 7 8 11 11 8 7 6 6 5 6 7 7 6 6 7 6 7 7 7 7 7 7 6 6 6 6 7 7 6 6 6 7 7 7
4 4 4 5 4 3 3 3 3 3 2 2 2 2 2 2 2 3 2 2 2 2 4 3 4 4 5 5 6 5 4 4 4 4 6 7 8 9 8 7 6 6 7 8 7 7 10 12 8 7 7 7 7 6 6 9 9 6 6 6 6 6 6 6 6 6 6 6 6 6 6 6 7 7 7 6 6 6 6 6 6 6 6 6 7 7 7
3 4 3 5 3 3 4 3 2 2 2 2 1 1 2 3 2 3 2 3 2 2 4 4 5 5 5 6 6 5 5 5 6 5 6 8 8 7 8 5 2 5 6 6 7 8 10 9 8 7 6 7 6 7 7 7 6 5 5 6 6 6 6 6 6 6 6 6 6 6 6 6 6 6 5 6 6 6 6 7 7 7 7 7 7 6 7
2 4 4 4 4 4 3 3 3 3 2 2 2 2 2 2 2 3 3 3 3 3 3 3 5 6 6 6 6 7 7 6 7 6 6 7 7 8 9 5 3 6 9 10 9 9 8 8 7 7 7 6 6 8 8 7 5 6 6 6 6 6 6 6 6 5 5 6 6 6 5 5 6 6 5 4 4 6 6 6 6 6 6 6 6 6 6
4 4 4 5 5 4 4 4 3 3 3 2 2 2 3 3 3 4 4 4 5 5 5 5 7 7 7 7 8 8 7 7 9 9 9 8 6 4 8 6 5 7 10 7 8 7 7 6 6 6 7 7 5 6 7 6 6 6 6 6 6 6 6 6 6 5 5 6 6 5 5 5 6 6 5 5 4 5 7 7 7 7 6 6 6 4 4
3 3 4 4 4 4 4 4 3 3 4 2 1 3 3 3 3 4 5 5 5 6 7 6 6 6 6 6 8 8 7 8 8 8 9 8 8 7 6 6 5 6 10 7 7 6 5 5 5 6 8 9 8 7 6 5 5 6 6 6 6 6 6 5 6 5 6 5 5 5 5 4 4 5 5 4 4 4 4 5 6 6 7 6 6 5 5
2 4 3 3 3 4 4 3 3 4 4 3 3 3 3 3 3 3 5 5 6 6 5 6 5 5 5 5 6 6 5 5 6 9 10 9 9 4 1 5 5 5 8 9 7 6 5 4 5 6 4 6 7 8 6 6 6 6 6 6 6 7 7 6 6 6 5 5 5 5 5 6 6 6 6 5 5 6 6 6 6 6 7 7 6 6 6
4 4 5 6 5 3 3 3 3 3 4 4 3 3 3 3 3 3 3 5 6 5 5 5 5 5 6 7 7 7 7 7 6 6 6 5 7 5 3 5 5 7 10 9 4 5 5 5 5 4 4 5 6 7 5 5 5 5 6 6 6 7 7 6 6 6 6 6 5 5 4 4 4 5 6 6 6 7 6 5 5 5 5 7 8 8 8
3 3 4 4 2 2 2 3 4 4 4 5 4 3 2 3 3 3 3 4 5 5 5 5 4 4 3 7 8 8 8 8 6 5 8 7 7 6 6 8 9 10 7 4 3 3 3 2 4 5 6 6 6 3 4 4 4 4 5 6 6 6 6 7 7 6 6 6 5 6 5 6 6 6 6 5 6 7 7 6 6 6 5 4 4 5 4
4 4 4 4 2 1 3 5 4 3 3 5 4 4 3 3 3 3 3 4 5 5 5 5 5 4 3 3 4 4 6 9 10 4 4 7 5 6 5 4 4 5 5 5 3 5 6 5 4 5 5 4 3 4 4 4 3 3 3 6 6 6 6 6 5 5 5 5 4 4 4 4 4 5 5 7 7 7 7 7 7 6 5 5 5 5 5
4 3 3 3 3 3 3 4 4 3 3 3 4 4 3 4 3 3 3 4 5 6 6 5 5 5 4 4 5 5 5 5 4 5 5 6 7 6 5 4 3 3 1 0 1 3 3 5 3 7 1 2 2 3 4 3 2 3 3 3 3 7 6 6 6 6 6 6 6 5 6 6 5 5 5 5 6 5 5 6 5 3 2 2 3 4 7
3 3 3 2 3 3 3 4 3 4 4 4 5 4 4 4 4 3 4 4 4 5 5 5 6 6 5 5 5 5 6 6 7 6 6 7 8 7 4 3 1 2 3 2 3 1 3 0 2 6 2 1 3 2 2 1 1 0 1 2 1 2 3 4 3 3 5 4 3 1 1 1 1 2 3 3 5 6 6 6 7 8 11 8 6 6 6
3 4 3 2 3 4 2 2 4 5 5 5 4 4 5 5 4 3 4 4 5 6 6 5 5 5 5 5 5 5 6 6 6 7 6 6 6 5 3 2 2 3 3 2 3 2 0 1 1 4 1 2 1 1 2 3 1 2 2 2 2 1 3 4 4 6 7 7 8 8 8 7 8 8 7 7 7 8 8 8 9 9 9 8 8 7 7
3 3 3 3 3 2 1 2 3 5 5 6 5 5 4 5 5 5 4 3 4 5 6 7 6 4 6 6 6 5 5 6 5 5 4 4 4 3 3 3 2 2 2 3 3 2 2 1 5 3 1 3 3 4 5 7 7 8 8 9 8 9 9 8 8 9 8 9 9 9 9 8 8 9 8 8 8 8 8 8 8 8 9 8 8 8 8
Wind_Direction
89 42 26 352 122 143 162 170 136 136 112 133 159 210 203 139 166 191 242 171 189 223 219 201 177 167 176 165 134 104 107 102 106 116 125 138 148 155 159 157 153 142 136 135 138 136 135 136 139 142 146 149 150 148 142 139 138 137 134 128 125 123 120 121 124 125 123 118 117 112 105 109 114 112 98 106 112 109 105 101 103 108 108 98 93 79 63
33 26 22 40 69 140 106 115 170 189 134 164 145 193 188 149 167 194 199 168 236 220 223 223 202 100 124 117 113 115 120 130 129 127 134 141 139 127 106 105 109 111 118 122 109 127 139 145 150 152 155 145 151 146 143 141 137 136 130 128 126 124 124 127 128 125 121 118 115 112 113 118 120 108 105 115 115 113 112 111 112 113 99 91 87 85 80
18 344 13 23 49 114 148 62 26 31 93 131 176 187 236 132 82 88 48 128 203 267 192 201 112 100 99 105 127 137 134 135 135 135 138 127 128 129 131 137 144 156 161 147 142 146 162 165 164 159 147 155 159 148 147 144 139 136 131 130 127 127 127 130 128 123 118 118 120 120 121 121 120 104 114 118 115 114 114 112 110 101 93 86 80 75 79
342 333 355 24 34 71 69 38 24 15 37 61 202 158 211 144 161 123 105 106 238 246 89 75 101 118 129 138 139 140 151 149 140 141 141 132 139 150 152 152 150 143 138 148 158 165 164 161 154 153 153 157 150 147 144 142 136 134 132 130 129 129 132 133 130 127 126 129 128 127 126 126 120 112 121 115 114 113 112 110 107 102 97 95 93 86 82
308 278 345 53 44 57 37 357 306 276 304 253 239 348 344 267 148 129 141 215 227 178 165 133 128 127 126 136 147 124 120 144 145 145 146 151 158 160 168 162 156 158 162 160 153 149 148 158 160 163 156 151 150 144 139 139 134 134 134 133 132 133 138 136 134 133 136 134 133 132 130 128 125 129 124 117 114 115 117 119 115 111 113 104 98 96 92
231 313 358 13 67 105 229 233 232 200 352 61 66 40 326 348 84 206 183 180 146 144 180 155 157 156 170 172 187 164 154 144 130 140 153 163 167 156 149 164 152 150 149 145 146 157 169 171 162 157 154 145 141 138 135 139 138 136 135 137 138 141 141 140 137 138 136 136 134 136 130 126 133 132 122 120 121 120 120 117 118 118 113 108 102 89 86
140 349 30 59 134 225 240 303 314 261 230 116 110 101 38 5 4 351 105 117 149 199 191 187 165 167 129 78 122 102 123 129 140 154 169 172 172 167 153 144 150 150 152 152 161 167 157 142 137 137 137 137 137 139 143 144 144 138 140 139 143 144 143 140 137 136 137 136 142 141 131 137 138 131 120 117 121 123 122 123 124 125 120 107 94 85 86
52 45 44 107 232 233 285 273 300 357 95 90 50 27 360 10 4 334 236 167 163 162 167 158 88 104 100 73 40 61 149 144 148 156 176 181 172 168 161 150 154 155 159 164 163 150 134 135 138 139 142 145 144 147 148 146 140 139 142 143 144 143 139 139 139 141 141 145 146 135 137 139 136 130 119 114 117 112 102 93 89 94 84 88 89 83 77
131 168 119 200 298 350 360 10 3 16 2 334 39 113 332 351 358 347 340 329 133 141 155 136 116 106 84 67 23 357 16 159 158 163 175 172 169 124 96 99 111 130 135 145 131 113 107 116 124 145 149 151 147 144 141 139 132 135 135 136 139 137 135 138 141 144 145 145 139 139 140 139 135 126 117 114 112 112 105 102 102 94 96 88 86 90 78
111 119 49 2 27 22 290 236 274 239 221 223 225 115 321 325 357 354 356 167 210 151 148 147 141 116 85 105 184 325 24 81 105 50 70 86 102 110 106 103 98 94 97 104 119 121 120 139 152 144 140 141 142 138 132 129 128 129 131 132 134 135 138 142 144 144 145 142 141 140 138 136 129 121 117 114 117 119 117 116 106 108 106 91 69 72 80
47 55 106 157 123 246 225 278 297 312 316 285 163 86 352 285 3 338 327 163 307 267 161 161 142 114 135 196 224 184 130 99 105 103 87 98 107 120 130 130 123 117 119 125 131 136 139 141 132 127 120 116 118 120 127 133 132 131 133 134 138 140 142 145 148 150 149 144 143 140 136 131 128 127 123 121 119 112 110 107 108 109 100 96 79 60 62
69 133 84 145 196 117 343 277 305 304 310 337 76 223 259 276 334 331 336 121 158 197 20 34 51 128 157 198 193 154 133 124 124 130 130 121 114 107 98 86 114 120 121 126 145 150 142 135 134 135 134 134 133 127 124 125 128 134 140 140 136 134 139 142 143 138 135 138 140 137 132 130 133 126 118 114 114 109 104 109 112 104 100 96 90 67 57
35 78 212 338 338 307 306 299 310 311 313 69 130 198 231 272 313 329 332 34 359 72 91 96 134 239 206 184 128 132 128 112 98 85 100 121 130 128 119 116 120 124 134 142 139 127 128 133 135 138 137 131 129 129 131 133 137 140 135 129 129 133 135 135 135 133 130 137 136 133 132 131 121 118 121 118 113 109 110 107 106 105 102 100 89 75 61
19 146 101 169 249 238 331 307 309 295 355 23 219 234 226 266 299 324 343 34 21 53 62 12 77 343 63 103 114 119 121 119 120 120 117 105 85 82 112 127 126 121 123 119 115 116 120 123 126 135 139 132 129 130 129 134 142 136 129 128 128 132 138 137 135 133 134 134 134 132 125 121 122 121 121 118 116 114 114 114 113 111 109 100 94 82 64
63 43 67 16 126 298 9 316 8 10 87 225 214 276 332 316 295 347 4 28 357 73 72 53 81 95 97 111 116 117 119 123 125 127 128 128 129 129 127 122 127 128 126 129 128 128 126 123 125 116 108 113 126 130 132 140 136 130 129 129 132 135 132 132 134 136 137 136 129 126 127 127 125 125 124 119 119 120 119 114 112 112 109 109 102 94 78
126 59 109 162 206 256 307 31 120 278 289 247 236 99 328 313 333 21 32 14 10 67 102 101 93 114 116 113 121 122 123 117 113 113 116 116 119 127 133 137 140 134 129 132 127 122 120 120 127 135 133 131 132 132 132 134 122 122 121 118 122 123 126 130 133 135 134 123 118 125 128 127 125 125 125 124 125 128 126 124 122 116 112 112 106 102 99
127 185 206 250 234 255 279 86 154 200 253 319 248 136 173 337 340 89 90 117 127 111 104 97 120 122 137 142 144 136 138 137 142 146 147 144 142 141 140 140 138 139 138 137 131 127 126 118 109 117 130 131 133 132 137 128 132 130 123 119 119 125 129 132 131 130 117 115 122 125 128 128 127 127 127 128 124 131 123 125 127 126 126 117 112 115 108
140 81 119 203 347 346 347 336 312 3 8 27 54 62 50 344 295 295 152 159 119 126 122 109 85 129 145 134 127 122 125 126 119 117 125 132 135 131 128 129 132 129 126 125 129 129 129 133 138 136 134 136 136 141 132 129 130 127 124 125 127 131 131 130 130 124 117 118 122 126 129 131 132 135 137 140 137 142 135 134 135 132 131 120 117 115 112
64 55 320 44 31 349 1 356 348 18 48 50 46 42 23 354 350 20 20 100 81 103 133 136 144 147 144 127 126 131 129 131 137 141 142 143 147 144 141 144 139 139 140 137 138 137 136 136 129 129 129 130 131 130 128 130 130 129 129 129 130 129 129 126 117 112 110 115 108 103 109 112 123 136 145 147 143 141 143 141 140 139 137 133 126 121 116
111 183 222 254 196 56 27 30 28 17 14 33 41 52 44 30 25 38 338 19 55 65 122 147 140 149 151 141 138 141 148 148 146 148 154 150 145 145 139 144 147 141 138 129 125 126 130 136 135 132 131 132 130 122 125 133 134 132 133 134 132 128 114 100 97 101 103 103 102 92 81 95 105 102 116 139 141 148 153 154 150 150 148 147 144 140 138
65 50 44 284 0 37 28 24 39 39 27 37 32 30 33 30 26 16 20 14 282 155 157 136 136 136 149 151 149 150 158 156 152 151 159 155 144 137 141 148 145 139 139 142 145 139 139 139 135 131 133 132 126 124 129 133 134 133 134 132 122 104 102 101 98 102 106 106 110 106 98 79 61 55 80 116 135 145 179 170 160 152 157 159 159 159 144
37 159 201 129 94 348 341 18 20 29 25 48 46 37 34 25 21 13 13 4 2 26 131 108 94 120 127 170 161 154 151 158 154 141 145 156 147 144 143 136 135 134 140 135 135 136 139 140 140 137 134 129 123 120 126 131 132 133 136 130 114 110 107 109 115 114 113 113 115 115 114 111 99 73 52 54 37 143 179 206 236 184 158 165 172 155 139
180 240 159 147 127 125 164 94 27 45 37 54 51 48 40 20 18 11 18 7 356 6 15 105 122 138 138 122 102 140 154 164 161 144 142 150 154 147 144 140 141 140 137 135 129 128 132 135 136 134 131 132 124 125 131 136 137 140 141 126 115 113 116 125 128 126 122 117 118 116 118 116 108 106 90 47 45 42 48 120 149 152 182 151 152 159 152
96 136 119 139 115 119 96 43 50 40 24 68 67 53 48 40 14 4 16 23 14 335 339 112 163 154 150 145 132 138 151 156 147 145 146 157 152 148 153 151 144 139 140 140 138 137 138 138 136 134 133 139 133 138 142 141 143 143 140 124 125 124 124 126 125 125 120 119 121 117 116 119 120 122 112 101 61 39 41 63 79 104 124 128 132 131 140
153 131 90 83 98 102 102 85 54 38 22 56 76 49 42 34 16 6 19 2 13 9 337 142 10 137 132 139 139 147 159 138 120 149 149 149 145 150 150 137 140 142 142 138 136 136 136 137 133 132 131 139 136 141 144 142 143 142 131 123 123 125 131 130 127 125 123 124 128 127 129 128 131 131 126 122 111 90 49 52 64 71 76 99 117 128 129
94 91 82 71 60 35 356 41 29 15 13 26 45 42 31 43 39 33 12 6 9 16 2 259 132 54 139 149 145 151 147 138 123 122 141 141 138 139 148 150 145 141 137 138 138 139 139 139 135 131 132 136 140 143 144 141 138 131 124 128 131 139 142 139 133 131 131 133 133 133 132 136 136 131 129 127 126 124 113 97 64 51 50 63 96 113 113
101 116 92 58 42 35 38 90 133 345 30 34 46 39 41 53 40 17 352 353 7 35 30 356 33 36 49 110 136 147 146 121 120 141 157 154 157 159 153 137 137 136 135 135 138 140 139 138 132 130 133 131 135 140 141 137 130 123 127 130 130 130 130 133 133 136 136 135 136 133 135 136 135 132 128 130 133 133 136 133 131 129 131 75 43 70 120
46 35 116 137 174 181 143 79 80 61 45 40 40 30 352 39 40 28 10 360 4 11 22 34 53 59 67 52 116 109 107 138 143 144 143 145 134 133 137 138 135 135 135 134 133 136 137 136 133 130 127 130 137 137 134 128 123 127 134 137 136 138 139 134 132 135 137 140 143 143 144 143 139 133 135 136 127 121 119 123 130 132 123 147 151 85 93
104 80 47 93 127 134 129 91 57 50 30 15 35 37 39 44 29 34 19 3 357 359 10 7 43 77 82 81 110 120 133 132 132 140 137 126 128 131 132 133 132 131 131 132 135 139 137 133 133 131 131 141 136 130 124 121 124 130 137 139 139 140 142 142 138 136 137 136 138 138 133 133 132 127 125 116 116 124 128 133 134 136 139 144 112 92 46
108 77 89 90 115 124 79 59 65 49 41 28 38 31 24 57 42 6 19 13 8 10 353 1 20 54 81 66 30 95 104 95 113 114 115 123 128 130 131 127 119 116 119 133 144 147 144 142 141 142 142 137 130 124 123 126 128 134 141 141 142 143 143 140 133 134 136 137 133 128 131 135 134 135 133 136 141 141 139 141 145 144 143 154 152 159 158
103 106 99 98 84 71 87 88 58 40 52 56 52 43 26 48 53 24 15 3 3 7 6 20 16 37 47 65 82 80 83 84 83 95 114 119 126 137 143 145 145 156 160 155 148 144 140 140 139 139 131 122 126 123 125 129 130 133 138 141 143 141 138 138 142 142 138 136 137 135 139 137 142 139 139 138 133 132 135 138 142 144 146 151 164 170 182
84 65 69 62 72 75 61 45 59 50 29 33 49 44 50 65 58 26 3 11 3 358 8 23 31 49 51 75 83 83 89 93 94 89 92 122 137 146 152 149 141 138 139 141 145 149 150 149 152 158 139 132 125 121 129 131 133 136 138 136 134 134 136 134 129 134 138 141 141 145 150 144 147 144 138 142 146 148 148 146 150 155 157 162 175 190 193
85 69 64 78 66 64 55 30 90 56 47 69 89 84 58 53 52 36 32 29 20 18 33 22 22 48 59 74 80 92 99 98 95 97 101 96 83 81 84 120 133 136 136 144 148 152 154 155 153 144 128 124 119 126 126 127 127 128 126 124 118 124 138 140 140 137 137 139 150 156 157 154 151 155 154 150 148 147 150 153 154 158 168 176 184 203 191
119 145 167 169 150 143 136 136 134 100 51 46 61 67 47 27 20 20 38 71 73 45 18 15 26 53 76 93 101 101 107 109 113 118 117 109 100 85 71 73 106 124 129 132 133 131 131 135 141 135 133 129 127 133 135 130 124 126 127 128 127 139 143 142 144 148 148 155 156 160 154 146 153 156 151 154 154 156 159 161 165 166 166 186 201 215 216
99 105 109 107 111 124 134 138 137 136 123 86 71 81 80 68 54 28 25 61 38 65 79 57 66 72 84 92 101 110 109 118 123 122 126 124 122 113 102 91 80 88 104 118 126 127 125 127 130 130 124 125 131 134 129 122 121 118 118 130 139 152 148 150 153 155 156 155 154 153 151 154 164 162 160 158 164 164 164 166 167 167 168 181 211 216 218
105 94 88 92 105 113 112 122 139 154 156 151 118 100 94 96 65 39 37 29 18 52 59 75 83 87 93 107 107 98 105 113 123 123 124 127 130 128 127 128 127 123 119 106 88 115 122 123 125 122 118 117 122 123 124 122 119 117 128 132 138 140 145 154 152 142 139 148 158 159 162 167 162 163 168 169 161 157 160 162 168 171 172 180 177 178 210
106 116 121 124 128 123 121 123 144 137 128 119 107 92 82 69 72 55 52 39 46 59 63 85 94 103 94 59 64 65 82 114 128 126 124 123 130 129 129 127 129 134 136 135 148 128 107 108 109 103 100 109 116 113 103 100 104 115 123 132 142 139 142 144 145 143 150 159 155 157 152 149 159 169 171 164 163 165 159 164 171 173 177 177 175 178 191
125 132 138 129 130 124 121 163 169 111 93 66 59 81 111 95 81 80 65 69 73 71 66 70 91 87 86 83 78 89 92 80 100 117 125 128 130 123 121 128 134 133 127 147 133 101 106 101 95 95 101 104 107 105 116 121 125 120 123 131 135 135 136 136 134 137 146 150 150 147 153 160 161 167 176 173 159 159 169 170 170 173 183 183 184 188 192
84 74 77 105 102 98 110 105 97 94 102 112 105 93 83 99 76 80 84 68 58 94 95 97 103 103 105 102 101 91 90 96 99 110 111 103 97 102 103 105 113 118 122 133 120 115 106 97 98 100 104 108 113 123 140 145 135 133 138 128 125 123 127 126 135 144 143 141 141 149 150 153 156 160 171 175 160 164 169 175 173 176 173 182 182 196 205
117 127 130 110 119 137 109 109 103 109 123 129 119 112 117 102 97 107 97 70 48 89 103 109 111 109 108 109 107 106 101 97 89 97 104 108 104 100 92 73 72 94 104 111 110 104 104 100 96 100 109 123 129 135 144 150 143 139 126 120 123 124 125 130 134 135 137 136 138 141 144 151 159 163 166 156 149 158 161 165 166 170 178 182 192 200 201
105 116 127 120 143 156 141 127 113 115 119 127 118 111 106 116 118 106 106 114 103 92 103 113 110 105 112 117 114 114 109 101 95 94 105 103 96 97 100 86 64 93 98 102 104 109 110 109 110 115 126 134 138 144 146 168 145 125 121 116 120 128 132 141 140 140 142 146 148 153 156 156 153 153 157 155 152 153 157 162 170 176 176 186 201 201 201
107 135 111 90 89 100 106 108 107 82 67 89 110 103 103 102 110 121 128 119 107 99 99 106 117 119 117 112 109 104 98 98 93 83 77 91 115 117 99 78 72 92 99 101 104 106 104 113 121 129 130 131 133 159 157 151 131 124 118 119 127 135 136 138 140 149 150 150 155 156 153 151 147 151 161 158 146 147 158 165 172 182 196 194 192 196 194
85 113 117 120 126 123 118 120 120 125 97 69 90 98 102 97 92 93 111 119 113 105 103 103 106 111 117 115 110 105 106 107 100 90 74 55 44 64 108 121 103 96 99 100 107 107 116 124 127 124 131 133 141 153 141 137 140 131 123 122 132 140 143 147 150 151 151 154 159 160 160 156 142 144 154 167 187 181 167 169 176 188 194 199 206 201 211
81 119 139 129 133 140 134 126 127 117 115 120 89 90 86 87 96 118 122 121 115 121 126 129 126 122 117 115 112 114 117 115 108 103 99 89 69 47 65 106 115 116 108 106 104 109 109 106 107 126 138 151 163 130 99 111 123 128 135 135 142 146 148 149 153 159 164 165 161 163 165 170 152 156 163 173 184 200 200 186 179 185 190 198 204 198 210
83 107 118 120 118 111 120 129 141 151 155 152 117 89 90 94 95 108 124 123 130 131 132 134 132 123 111 98 93 91 88 93 115 124 118 114 107 98 66 122 130 119 85 81 68 58 39 41 72 95 138 166 139 102 91 90 104 124 135 137 144 148 154 161 169 172 169 166 175 175 175 180 176 174 178 184 185 185 199 205 202 187 179 190 195 206 220
74 93 114 112 112 131 145 124 126 119 108 103 92 66 70 92 95 90 109 130 137 141 142 135 135 130 124 107 96 88 82 80 70 75 86 107 123 149 155 116 100 89 72 65 38 38 22 22 89 149 212 205 128 102 98 90 88 98 125 138 147 153 164 168 169 168 168 176 177 175 185 194 179 181 183 175 186 186 203 212 224 217 190 185 191 201 210
98 99 102 106 115 133 114 106 118 107 103 102 106 113 95 92 95 94 95 110 123 124 127 125 120 121 126 127 124 116 106 91 67 64 95 99 98 101 102 100 100 95 76 65 40 13 2 8 115 191 218 214 122 105 100 78 75 81 123 150 153 165 160 169 176 178 169 178 183 186 192 183 193 195 188 177 177 187 188 195 215 227 230 226 230 222 209
123 122 112 108 94 106 108 105 108 119 128 136 138 134 133 114 99 90 92 101 111 118 119 114 113 109 102 86 73 85 110 117 108 71 76 102 104 105 99 100 114 104 82 66 25 321 340 321 119 187 234 219 121 107 102 95 82 88 120 144 156 158 161 171 179 180 161 159 174 185 197 198 198 205 201 187 193 187 189 192 209 223 228 224 231 228 228
141 143 129 105 82 68 89 101 119 125 121 114 107 118 122 113 105 103 103 102 110 120 122 123 119 112 96 85 97 97 75 47 81 129 135 117 115 115 114 94 82 61 57 75 261 289 342 310 309 108 227 296 79 85 83 79 86 92 123 132 163 163 154 168 177 182 168 163 176 187 195 182 181 181 202 213 216 198 184 198 206 206 234 285 349 9 17
136 108 97 99 96 85 95 117 137 142 127 115 124 131 124 113 111 121 111 99 104 107 116 116 120 118 118 114 108 108 98 93 87 92 106 113 114 111 110 114 131 201 205 195 202 258 342 287 281 94 152 58 74 104 107 76 58 75 134 124 173 206 154 119 110 136 153 145 156 116 73 61 62 44 24 11 15 16 23 31 39 54 62 67 70 66 59
133 123 142 181 158 158 164 174 170 152 141 142 140 132 117 111 115 114 113 113 114 111 114 117 120 125 123 114 117 117 111 99 104 114 119 118 113 121 137 145 181 218 228 203 163 188 225 246 90 110 169 36 38 68 53 21 47 131 142 130 143 104 71 87 85 64 52 64 70 67 62 61 64 66 61 57 56 55 50 49 49 49 53 56 57 60 58
156 155 156 161 177 204 183 171 109 127 144 143 144 134 128 126 117 109 102 109 121 131 131 126 122 123 121 124 120 123 111 106 110 113 123 126 127 143 165 177 206 218 195 205 207 174 205 130 96 169 97 55 88 98 63 35 34 52 45 45 53 59 61 61 69 75 68 62 63 63 57 55 62 67 61 60 61 64 62 58 56 53 52 53 55 58 61